[[{"header":{"parameterUnit":"m.s-1","parameterCategory":1,"la1":30.2991,"la2":30.254,"lo1":-89.0895,"lo2":-89.0444,"dy":0.0017,"dx":0.0017,"nx":28,"ny":28,"refTime":"2025-02-28T09:00:00:Z","depth":0,"parameterNumber":2,"parameterNumberName":"U-component_of_WINDS"},"data":[0,0,0,0,0,0,0,0,0,0,0,0,0,0,0,0,0,0,0,0,0,0,0,0,0,0,0,0,0,0,0,0,0,0,0,0,0,0,0,0,0,0,0,0,0,0,0,0,0,0,0,0,0,0,0,0,0,0,-1.0433,-1.0432,0,-1.034,-1.0338,-1.0337,-1.0307,-1.0308,-1.0308,-1.0309,-1.0214,-1.0211,-1.0208,0,0,0,0,0,0,0,0,0,0,0,0,0,-1.0587,-1.0584,-1.0433,-1.0432,-1.043,-1.034,-1.0338,-1.0337,-1.0307,-1.0308,-1.0308,-1.0309,-1.0215,-1.0211,-1.0208,0,0,0,0,0,0,0,0,0,0,0,0,0,-1.0509,-1.0583,-1.0433,-1.0405,-1.0401,-1.034,-1.0338,-1.0337,-1.0307,-1.0308,-1.0308,-1.0309,-1.0216,-1.0211,-1.0207,-1.0168,0,0,-1.0194,-1.0192,0,0,0,0,0,0,0,0,-1.0514,-1.0504,-1.041,-1.0406,-1.0402,-1.0336,-1.0358,-1.028,-1.0307,-1.0343,-1.0309,-1.0309,-1.0254,-1.0246,-1.0227,-1.0163,-1.0159,-1.0193,-1.0191,-1.0189,-1.0188,0,0,0,0,0,0,0,-1.0519,-1.0508,-1.0396,-1.0409,-1.0404,-1.0397,-1.0387,-1.0343,-1.0296,-1.034,-1.0337,-1.0327,-1.0252,-1.0232,-1.0225,-1.0158,-1.0193,-1.019,-1.0187,-1.0185,-1.0058,-1.0058,0,0,0,0,0,0,-1.0529,-1.0512,-1.0399,-1.0393,-1.0461,-1.0394,-1.0382,-1.0357,-1.0296,-1.0288,-1.0326,-1.0326,-1.0239,-1.023,-1.0222,-1.0172,-1.0189,-1.0185,-1.0182,-1.0059,-1.0058,-1.0057,0,0,0,0,0,0,-1.0533,-1.0519,-1.0403,-1.0452,-1.0437,-1.0391,-1.0362,-1.0354,-1.0334,-1.0286,-1.0278,-1.0314,-1.0239,-1.0228,-1.0182,-1.0168,-1.0183,-1.0179,-1.006,-1.0059,-1.0058,-1.0072,0,0,0,0,0,0,-1.0537,-1.0521,-1.0504,-1.0452,-1.0434,-1.0363,-1.0361,-1.0352,-1.0327,-1.0325,-1.0273,-1.0265,-1.0239,-1.0188,-1.0177,-1.0163,-1.0175,-1.0061,-1.0059,-1.0058,-1.0073,-1.0072,-1.0071,0,0,0,0,0,-1.0543,-1.0512,-1.0504,-1.049,-1.0413,-1.0363,-1.0353,-1.0323,-1.0326,-1.0309,-1.0279,-1.0266,-1.0172,-1.0184,-1.0171,-1.0155,-1.0062,-1.006,-1.0058,-1.0073,-1.0072,-1.0071,0,0,0,0,0,0,-1.0563,-1.0504,-1.0495,-1.0446,-1.041,-1.0358,-1.0336,-1.0323,-1.0285,-1.0285,-1.0251,-1.0239,-1.0196,-1.0171,-1.0185,-1.0115,-1.0116,-1.0112,-1.0132,-1.0131,-1.013,-1.0136,-1.0172,0,0,0,0,0,-1.0563,-1.0526,-1.0477,-1.0439,-1.0421,-1.0382,-1.0359,-1.034,-1.0301,-1.0286,-1.0252,-1.0215,-1.0177,-1.0153,-1.0115,-1.007,-1.0059,-1.0053,-1.0052,-1.0051,-1.0048,-1.0024,-1.0021,-1.0052,-1.0052,-1.0052,0,0,-1.056,-1.0523,-1.0502,-1.0442,-1.0412,-1.0376,-1.0369,-1.0331,-1.0304,-1.028,-1.0234,-1.0209,-1.0165,-1.012,-1.0098,-1.0098,-1.0037,-1.0049,-1.0049,-1.0046,-1.0022,-1.0019,-1.0016,-1.0051,-1.0051,-1.0051,0,0,-1.0536,-1.0505,-1.047,-1.044,-1.0395,-1.0369,-1.0362,-1.0312,-1.0294,-1.0248,-1.023,-1.0198,-1.0133,-1.0103,-1.008,-1.0049,-1.0036,-1.0038,-1.0033,-1.001,-1.0007,-1.0005,-0.9994,-0.9991,-1.0035,-1.0035,-1.0035,0,-1.0538,-1.0483,-1.0454,-1.0417,-1.0392,-1.0369,-1.0334,-1.0307,-1.0252,-1.0235,-1.0236,-1.0155,-1.0124,-1.0073,-1.0065,-1.0047,-1.0037,-1.0043,-1.001,-1.0007,-1.0005,-0.9994,-0.999,-1.0035,-1.0035,-1.0035,-1.0035,0,-1.0488,-1.0451,-1.0428,-1.0376,-1.0348,-1.0313,-1.0279,-1.0255,-1.0239,-1.0214,-1.0169,-1.0132,-1.0087,-1.0074,-1.0057,-1.002,-1.0021,-1.0017,-1.0017,-1.0003,-0.9992,-0.9988,-1.0036,-1.0036,-1.0036,-1.0035,0,0,-1.0473,-1.0407,-1.0399,-1.0376,-1.0326,-1.0296,-1.0261,-1.0218,-1.0198,-1.0162,-1.0131,-1.0079,-1.0074,-1.0048,-1.0029,-1.0009,-0.9988,-1.0006,-1.0005,-1.0004,-0.9945,-0.9949,-0.9945,-0.998,-0.9979,-0.9978,-0.9949,0,-1.0443,-1.0377,-1.0352,-1.0299,-1.0265,-1.0244,-1.0214,-1.018,-1.0157,-1.0125,-1.0099,-1.0062,-1.0059,-1.0044,-1.0023,-0.9994,-0.9975,-0.9996,-0.9952,-0.995,-0.9962,-0.9939,-0.9942,-0.9917,-0.9945,-0.9944,-0.9944,0,-1.0398,-1.0362,-1.0306,-1.0262,-1.0247,-1.022,-1.0179,-1.0149,-1.0111,-1.0096,-1.0068,-1.005,-1.0014,-1.0018,-0.9968,-0.9983,-0.9964,-0.9948,-0.9946,-0.994,-0.9945,-0.9933,-0.9908,-0.9904,-0.9937,-0.9937,-0.9938,0,-1.0393,-1.033,-1.0289,-1.027,-1.0218,-1.0199,-1.0177,-1.014,-1.0116,-1.0081,-1.0066,-1.0027,-1.0006,-0.9977,-0.995,-0.9956,-0.9903,-0.9905,-0.989,-0.989,-0.9878,-0.9879,-0.985,-0.9867,-0.9867,-0.9867,-0.9867,0,-1.0361,-1.0328,-1.0287,-1.0261,-1.0224,-1.0196,-1.016,-1.0136,-1.0104,-1.0075,-1.0055,-1.0028,-0.9995,-0.9964,-0.9943,-0.9905,-0.9896,-0.9883,-0.9877,-0.9884,-0.9886,-0.987,-0.9871,-0.9866,-0.9866,-0.9866,-0.9867,0,-1.0348,-1.0319,-1.0273,-1.0228,-1.0216,-1.0191,-1.0152,-1.0128,-1.0105,-1.0068,-1.0058,-1.0021,-0.9984,-0.9955,-0.9907,-0.9893,-0.9853,-0.9847,-0.9866,-0.9863,-0.9849,-0.9851,-0.9808,-0.9802,-0.9824,-0.9823,-0.9823,0,-1.0329,-1.0304,-1.0256,-1.0236,-1.0213,-1.0179,-1.0156,-1.0128,-1.0104,-1.0061,-1.0042,-1.0004,-0.9971,-0.9913,-0.9883,-0.9847,-0.984,-0.9828,-0.9834,-0.9842,-0.984,-0.9842,-0.9839,-0.9826,-0.9826,-0.9826,-0.9826,0,-1.03,-1.0288,-1.0254,-1.0216,-1.0189,-1.0157,-1.0126,-1.011,-1.0076,-1.0051,-1.0013,-0.9988,-0.994,-0.9902,-0.9863,-0.9841,-0.9828,-0.9825,-0.9819,-0.9825,-0.9837,-0.9831,-0.9863,-0.9825,-0.9826,-0.9826,-0.9826,-0.9826,-1.0283,-1.026,-1.0224,-1.0188,-1.0162,-1.0133,-1.0108,-1.0083,-1.0051,-1.0009,-0.9995,-0.9956,-0.9922,-0.9868,-0.9846,-0.9816,-0.9815,-0.9807,-0.9805,-0.9803,-0.9804,-0.9843,-0.9809,-0.9809,-0.9809,-0.9809,-0.9809,0,-1.0253,-1.0229,-1.0197,-1.0154,-1.0126,-1.0117,-1.0083,-1.006,-1.0026,-0.9995,-0.9965,-0.9922,-0.9887,-0.9855,-0.9818,-0.98,-0.9794,-0.9792,-0.9792,-0.9788,-0.9807,-0.9815,-0.9798,-0.9798,-0.9798,-0.9798,-0.9798,-0.9798,-1.0234,-1.0194,-1.0178,-1.0127,-1.0103,-1.0065,-1.0046,-1.0021,-0.9996,-0.9949,-0.992,-0.99,-0.9869,-0.983,-0.9798,-0.9789,-0.9777,-0.9776,-0.9767,-0.9785,-0.9786,-0.9787,-0.9795,-0.9774,-0.9774,-0.975,-0.975,-0.9749]},{"header":{"parameterUnit":"m.s-1","parameterCategory":1,"la1":30.2991,"la2":30.254,"lo1":-89.0895,"lo2":-89.0444,"dy":0.0017,"dx":0.0017,"nx":28,"ny":28,"refTime":"2025-02-28T09:00:00:Z","depth":0,"parameterNumber":3,"parameterNumberName":"V-component_of_WINDS"},"data":[0,0,0,0,0,0,0,0,0,0,0,0,0,0,0,0,0,0,0,0,0,0,0,0,0,0,0,0,0,0,0,0,0,0,0,0,0,0,0,0,0,0,0,0,0,0,0,0,0,0,0,0,0,0,0,0,0,0,1.687,1.687,0,1.6825,1.6824,1.6823,1.6868,1.687,1.6871,1.6873,1.6822,1.6819,1.6816,0,0,0,0,0,0,0,0,0,0,0,0,0,1.6992,1.699,1.687,1.687,1.6869,1.6825,1.6824,1.6823,1.6867,1.687,1.6872,1.6874,1.6823,1.6819,1.6816,0,0,0,0,0,0,0,0,0,0,0,0,0,1.6942,1.6989,1.687,1.6886,1.6887,1.6825,1.6824,1.6823,1.6867,1.687,1.6872,1.6875,1.6824,1.682,1.6815,1.6734,0,0,1.6801,1.68,0,0,0,0,0,0,0,0,1.6945,1.6937,1.6884,1.6885,1.6886,1.6855,1.6848,1.6793,1.6866,1.6874,1.6873,1.6876,1.683,1.6826,1.6811,1.6732,1.673,1.6801,1.6798,1.6796,1.6795,0,0,0,0,0,0,0,1.6948,1.694,1.6852,1.6883,1.6884,1.6894,1.689,1.6838,1.6838,1.6874,1.6877,1.6871,1.6831,1.6815,1.681,1.6729,1.6801,1.6797,1.6794,1.6793,1.6581,1.6579,0,0,0,0,0,0,1.695,1.6942,1.6853,1.6851,1.6922,1.689,1.6885,1.6862,1.6839,1.6838,1.6869,1.6873,1.6822,1.6815,1.6808,1.6712,1.6796,1.6792,1.679,1.6584,1.6581,1.6578,0,0,0,0,0,0,1.6953,1.6942,1.6855,1.6897,1.6887,1.6885,1.6858,1.686,1.6844,1.6835,1.6835,1.6853,1.6823,1.6815,1.6753,1.6711,1.679,1.6786,1.6588,1.6583,1.6579,1.6518,0,0,0,0,0,0,1.6956,1.6943,1.6913,1.6896,1.6885,1.6801,1.6856,1.6857,1.6836,1.6842,1.682,1.6819,1.6825,1.6759,1.6748,1.6706,1.6783,1.6591,1.6586,1.658,1.6524,1.6513,1.6503,0,0,0,0,0,1.696,1.6896,1.6911,1.69,1.6847,1.6799,1.6792,1.6801,1.6833,1.6802,1.6797,1.6819,1.6718,1.6753,1.6741,1.6696,1.6594,1.6587,1.6581,1.6529,1.6515,1.6503,0,0,0,0,0,0,1.6906,1.6894,1.691,1.684,1.682,1.6806,1.6768,1.6786,1.6756,1.6762,1.6774,1.6769,1.6703,1.6694,1.6733,1.6617,1.6661,1.6651,1.6625,1.6612,1.6601,1.6604,1.6779,0,0,0,0,0,1.6886,1.6849,1.6841,1.6779,1.6768,1.677,1.6749,1.6758,1.6738,1.6729,1.6719,1.6697,1.6661,1.6636,1.6602,1.6524,1.6519,1.6487,1.6477,1.6468,1.6459,1.6417,1.6403,1.6556,1.6556,1.6556,0,0,1.6844,1.6833,1.6809,1.6768,1.6753,1.6714,1.6762,1.6718,1.6688,1.6722,1.6663,1.6655,1.6631,1.6561,1.653,1.6551,1.6416,1.6459,1.6452,1.6449,1.6409,1.6394,1.6381,1.6552,1.6552,1.6553,0,0,1.6747,1.6735,1.6682,1.6668,1.6647,1.6648,1.6635,1.6619,1.6616,1.6557,1.6582,1.6546,1.6482,1.6465,1.6447,1.6344,1.6364,1.6333,1.6276,1.6235,1.6223,1.6212,1.6175,1.6161,1.6325,1.6324,1.6324,0,1.6696,1.6639,1.6653,1.6607,1.6588,1.6619,1.6565,1.6549,1.6517,1.6503,1.6528,1.6449,1.6436,1.6361,1.6336,1.6322,1.6307,1.6335,1.6224,1.6213,1.6203,1.6168,1.6154,1.6321,1.6321,1.6322,1.6322,0,1.6577,1.6537,1.6497,1.6467,1.6443,1.6393,1.6399,1.6373,1.6385,1.6384,1.6323,1.6309,1.6272,1.6255,1.6265,1.6182,1.6196,1.6222,1.6266,1.6185,1.6151,1.6138,1.6315,1.6317,1.6318,1.6319,0,0,1.6443,1.6423,1.6408,1.6395,1.6374,1.6342,1.6294,1.6259,1.6237,1.6214,1.6173,1.6119,1.6143,1.6123,1.6132,1.6096,1.6015,1.6127,1.6126,1.6106,1.5922,1.5901,1.5885,1.6029,1.6026,1.6024,1.5923,0,1.6345,1.6262,1.6274,1.6193,1.6156,1.6185,1.6143,1.6125,1.6123,1.609,1.6087,1.6048,1.6084,1.6072,1.6038,1.6032,1.5978,1.604,1.5989,1.5987,1.5993,1.5868,1.5847,1.5752,1.5911,1.5908,1.5907,0,1.6218,1.6193,1.6109,1.6095,1.608,1.6042,1.6011,1.598,1.596,1.5961,1.5939,1.5955,1.5905,1.5951,1.5883,1.5924,1.5904,1.5899,1.5895,1.589,1.5941,1.5858,1.5722,1.5708,1.5887,1.5888,1.589,0,1.6128,1.6072,1.6015,1.6003,1.5985,1.5958,1.5949,1.5932,1.5911,1.5884,1.587,1.5837,1.5819,1.5792,1.5798,1.5831,1.5728,1.5774,1.5726,1.5725,1.5701,1.5703,1.5559,1.569,1.5691,1.5691,1.5691,0,1.6016,1.5963,1.5974,1.5939,1.5881,1.5895,1.5837,1.5831,1.5816,1.5779,1.5803,1.5768,1.5778,1.5743,1.5747,1.569,1.5681,1.568,1.5681,1.5677,1.5677,1.5663,1.5669,1.5687,1.5688,1.5689,1.5689,0,1.5904,1.591,1.5849,1.5838,1.5834,1.5792,1.5781,1.5748,1.5748,1.5701,1.5691,1.5691,1.5651,1.5655,1.561,1.5612,1.5541,1.555,1.5547,1.5549,1.55,1.5504,1.5342,1.5321,1.5467,1.5465,1.5464,0,1.5832,1.5792,1.5778,1.5756,1.5745,1.5709,1.5688,1.57,1.5677,1.5652,1.5621,1.5584,1.5555,1.549,1.5484,1.545,1.5458,1.5404,1.5453,1.545,1.5456,1.5458,1.5454,1.5394,1.5392,1.5391,1.539,0,1.5703,1.5708,1.5677,1.5647,1.5622,1.5599,1.5578,1.5558,1.5568,1.5541,1.5502,1.5479,1.5434,1.5396,1.5364,1.5353,1.5372,1.5375,1.5361,1.5356,1.5355,1.5354,1.552,1.5378,1.5379,1.538,1.538,1.5381,1.5608,1.5574,1.5559,1.5524,1.551,1.549,1.5458,1.5455,1.5423,1.5388,1.5397,1.5352,1.5334,1.5293,1.5279,1.5243,1.5263,1.5244,1.5239,1.5234,1.5228,1.5362,1.5238,1.5238,1.5238,1.5238,1.5239,0,1.5479,1.5471,1.5439,1.541,1.5383,1.5406,1.5384,1.5359,1.5319,1.5301,1.5273,1.5227,1.5191,1.5184,1.5149,1.5122,1.5129,1.5112,1.5113,1.511,1.5212,1.5227,1.5106,1.5106,1.5106,1.5106,1.5106,1.5106,1.5409,1.5353,1.5357,1.5294,1.5286,1.5244,1.5229,1.5211,1.5197,1.5145,1.5116,1.5112,1.5098,1.5063,1.503,1.5029,1.5014,1.4993,1.4995,1.509,1.5103,1.5116,1.513,1.499,1.499,1.4896,1.4895,1.4894]}]]